Glendale Luke AFB, AZ

12:23 PM MST on November 20, 2019 (GMT -0700)
Luke Air Force Base

Weather History for KLUF - July, 2019

Change the Weather History Date:

Friday, July 26, 2019

  Actual Average Record
Temperature  
Mean Temperature 100 °F -  
Max Temperature 109 °F 108 °F 115 °F (1933)
Min Temperature 90 °F 75 °F 65 °F (1944)
Cooling Degree Days 34    
Growing Degree Days 50 (Base 50)    
Moisture  
Dew Point 59 °F    
Average Humidity 26    
Maximum Humidity 37    
Minimum Humidity 18    
Precipitation  
Precipitation 0.00 in - - ()
Sea Level Pressure  
Sea Level Pressure 29.81 in    
Wind  
Wind Speed 12 mph (SW)    
Max Wind Speed 16 mph    
Max Gust Speed 24 mph    
Visibility 10 miles    
Events      
Averages and records for this station are not official NWS values.
T = Trace of Precipitation, MM = Missing Value Source: NWS Daily Summary

Daily Weather History Graph

Daily Weather History Graph

Search for Another Location

Airport or City:

Astronomy

Jul. 26, 2019 Rise Set
Actual Time 5:37 AM MST 7:34 PM MST
Civil Twilight 5:10 AM MST 8:01 PM MST
Nautical Twilight 4:36 AM MST 8:35 PM MST
Astronomical Twilight 4:00 AM MST 9:10 PM MST
Moon 12:46 AM MST (7/26) 2:27 PM MST (7/26)
Length of Visible Light 14h 51m
Length of Day
13h 56m
Waning Crescent, 33% of the Moon is Illuminated
Jul 26
Waning Crescent
Jul 31
New
Aug 7
First Quarter
Aug 15
Full
Aug 23
Last Quarter

Hourly Weather History & Observations

Time (MST) Temp. Heat Index Dew Point Humidity Pressure Visibility Wind Dir Wind Speed Gust Speed Precip Events Conditions
12:58 AM 94.8 °F 94.9 °F 60.3 °F 32% 29.81 in 10.0 mi SW 16.1 mph - N/A   Clear
1:58 AM 93.4 °F 93.5 °F 60.8 °F 34% 29.81 in 10.0 mi WSW 11.5 mph - N/A   Partly Cloudy
2:58 AM 92.8 °F 93.1 °F 61.2 °F 35% 29.81 in 10.0 mi SW 10.4 mph - N/A   Mostly Cloudy
3:58 AM 92.1 °F 92.4 °F 61.3 °F 36% 29.82 in 10.0 mi SW 12.7 mph - N/A   Scattered Clouds
4:58 AM 91.6 °F 91.6 °F 60.8 °F 36% 29.83 in 10.0 mi SW 13.8 mph - N/A   Mostly Cloudy
5:58 AM 90.3 °F 90.2 °F 60.4 °F 37% 29.86 in 10.0 mi SW 11.5 mph - N/A   Partly Cloudy
6:58 AM 91.6 °F 91.6 °F 60.8 °F 36% 29.88 in 10.0 mi SSW 10.4 mph - N/A   Clear
7:58 AM 93.4 °F 93.5 °F 60.8 °F 34% 29.89 in 10.0 mi SSW 9.2 mph - N/A   Clear
8:58 AM 96.8 °F 97.5 °F 61.2 °F 31% 29.90 in 10.0 mi SSW 8.1 mph - N/A   Clear
9:58 AM 98.2 °F 98.9 °F 61.3 °F 29% 29.90 in 10.0 mi SSW 6.9 mph - N/A   Clear
10:58 AM 99.9 °F 100.4 °F 60.8 °F 27% 29.89 in 10.0 mi SSW 8.1 mph - N/A   Clear
11:58 AM 102.7 °F 103.9 °F 61.2 °F 25% 29.87 in 10.0 mi SW 11.5 mph 17.3 mph N/A   Partly Cloudy
12:58 PM 105.1 °F 106.4 °F 60.8 °F 23% 29.84 in 10.0 mi WSW 10.4 mph - N/A   Partly Cloudy
1:58 PM 106.9 °F 107.8 °F 59.9 °F 21% 29.81 in 10.0 mi WSW 11.5 mph - N/A   Clear
2:14 PM 107.6 °F 108.2 °F 59.0 °F 20% 29.80 in 10.0 mi West 12.7 mph 24.2 mph N/A   Partly Cloudy
2:58 PM 108.0 °F 108.8 °F 58.1 °F 20% 29.78 in 10.0 mi SW 12.7 mph 20.7 mph N/A   Clear
3:14 PM 107.6 °F 107.5 °F 57.2 °F 19% 29.77 in 10.0 mi SSW 13.8 mph 17.3 mph N/A   Clear
3:51 PM 109.4 °F 109.4 °F 57.2 °F 18% 29.76 in 10.0 mi SSW 13.8 mph - N/A   Clear
3:58 PM 108.9 °F 109.4 °F 57.4 °F 19% 29.76 in 10.0 mi SW 15.0 mph - N/A   Clear
4:58 PM 108.5 °F 108.8 °F 57.2 °F 19% 29.75 in 10.0 mi WSW 12.7 mph - N/A   Clear
5:58 PM 108.3 °F 108.6 °F 57.0 °F 19% 29.74 in 10.0 mi SW 13.8 mph - N/A   Clear
6:58 PM 106.5 °F 105.9 °F 55.6 °F 19% 29.75 in 10.0 mi SW 13.8 mph - N/A   Clear
7:58 PM 104.4 °F 104.0 °F 56.5 °F 21% 29.77 in 10.0 mi SW 10.4 mph - N/A   Clear
8:58 PM 101.1 °F 100.8 °F 58.6 °F 24% 29.78 in 10.0 mi WSW 10.4 mph - N/A   Clear
9:58 PM 99.3 °F 98.6 °F 57.2 °F 25% 29.79 in 10.0 mi WSW 8.1 mph - N/A   Clear
10:58 PM 98.1 °F 97.2 °F 57.2 °F 26% 29.81 in 10.0 mi West 8.1 mph - N/A   Clear
11:58 PM 97.0 °F 96.1 °F 57.4 °F 27% 29.81 in 10.0 mi West 4.6 mph - N/A   Clear